FENGYUN 1C DEB, 29964

Orbit data source: Space-Track

FENGYUN 1C DEB, 29964 is space debris in SSO originally from a launch on Mon, 10 May 1999 UTC launched from the Taiyaun Space Center, China (TSC). Fengyun 1C debris stems from the Chinese weather satellite Fengyun-1C, which was intentionally destroyed by a Chinese anti-satellite missile in 2007. This event dramatically increased the amount of space debris, with thousands of trackable fragments posing hazards to satellites and human spaceflight. The Fengyun 1C debris cloud has become a focal point in discussions about space sustainability and the need for international regulations to prevent the creation of new debris.

Loading next visibility...
Identifier
29964, 1999-025KN
Orbit
SSO
Country
Flag of CNCN / PRC
Related business
Manufacturer
Unknown
Mission
Spacecraft
Bus & Motor
Unknown
Mass
Unknown
Launch date (UTC)
1999-05-10 (27 years ago)
Launch vehicle
Unknown
Launch site
Taiyaun Space Center, China (TSC)
Object type
Payload
Rocket body
Debris
Shape & HBR
Unknown shape, 0.2 m
Radar Cross Section
Medium (>0.1 m² and <1 m²)

Expand to show TLE details & history
Last TLE update: 1 week ago

TLE from 1 week ago
0 FENGYUN 1C DEB
1 29964U 99025KN  26154.47348278  .00001949  00000-0  11801-2 0  9992
2 29964  98.3657 348.2201 0131650 139.9893 221.1066 14.03241884987397
Epoch: 2026-06-03T11:21Z
TLE epoch observation values (Epoch: 2026-06-03T11:21:48.912Z)
Latitude
0.00008°
Longitude
-74.16531°
Altitude
958.068 km
Speed
7.336 km/s
True Right ascension
23h 12m 52s
True Declination
0° 00' 00"
Sunlit
Object was in daylight at epoch
Visualization orbit readout
Latitude
Unknown
Longitude
Unknown
Altitude
Unknown
Speed
Unknown
Apparent Right ascension
Unknown
Apparent Declination
Unknown
Sunlit
N/A
Visualization observer readout
Local Sidereal Time
01:35:08
Azimuth
Unknown
Elevation
Unknown
Doppler factor
Unknown
Orbital elements
Apogee altitude
975.305 km
Perigee altitude
784.205 km
Semi-major axis
7,257.892 km
Eccentricity
0.01317
Inclination
98.3657°
RAAN
348.2201°
Arg. of periapsis
139.9893°
True anomaly
220.12696°
Mean anomaly
221.1066°
Eccentric anomaly
220.61557°
Mean motion
3.51016 °/min
Orbital period
102.56 mins
BSTAR
0.0011801
Loading maneuver chart data...
Computing Atmospheric mass density...
Loading historical data...
Loading historical data...
Loading historical data...
Loading historical data...
Loading historical data...
Loading historical data...
Loading historical data...

Documentation

Showing up to 5 results
|